Weather observations for the past three days for
St. Paul Island, St. Paul Island Airport
Metric (Imperial)
Date Time (akdt) Wind (kph) Vis. (km) Weather Sky Cond. Temperature (ºC) Relative Humidity Wind Chill (°C) Heat Index (°C) Pressure Precipitation (cm)
Air Dwpt 6 hour altimeter (cm) sea level (mb) 1 hr 3 hr 6 hr
Max. Min.
21 09:53 SW 13 9.66 Fog/Mist OVC002 5.6 5 5.6 5 96% 3 76.48 1019.5
21 08:53 W 15 1.21 Fog/Mist VV002 5 4.4 96% 2 76.45 1019.3
21 07:53 W 15 0.80 Fog VV002 5 5 100% 2 76.43 1019.0
21 06:53 W 11 0.80 Fog VV002 5.6 5 96% 3 76.4 1018.6
21 05:53 W 13 0.80 Fog VV002 5.6 5 96% 3 76.38 1018.5
21 04:53 W 17 0.40 Fog VV002 6.1 5.6 97% 3 76.38 1018.4
21 03:53 SW 7 14.48 Overcast OVC004 6.7 6.1 8.3 6.1 96% 6 76.38 1018.3
21 02:53 SW 9 16.09 Overcast BKN005 OVC022 7.2 6.1 93% 6 76.35 1018.1
21 01:53 SW 6 14.48 Overcast BKN005 OVC023 6.1 5.6 97% 76.33 1017.7
21 00:53 S 7 16.09 Overcast OVC025 6.1 5 93% 5 76.33 1017.5
20 23:53 Calm 16.09 Overcast FEW010 OVC025 8.3 6.1 86% 76.28 1017.0
20 22:53 Calm 16.09 Overcast OVC009 8.3 6.1 86% 76.25 1016.7
20 21:53 Calm 16.09 Overcast BKN011 OVC029 8.3 5.6 10 8.3 83% 76.23 1016.3
20 20:53 SW 9 16.09 Overcast OVC029 9.4 6.1 80% 8 76.23 1016.1
20 19:53 S 9 16.09 Overcast BKN030 OVC044 8.9 6.1 83% 8 76.2 1016.0
20 18:53 S 6 16.09 Overcast OVC028 8.9 6.1 83% 76.2 1015.9
20 17:53 SE 9 14.48 Overcast OVC024 8.3 6.1 86% 7 76.17 1015.7
20 16:53 SE 11 16.09 Overcast FEW020 OVC029 8.9 6.1 83% 7 76.15 1015.3
20 15:53 E 15 16.09 Overcast OVC028 8.9 6.1 10.6 6.7 83% 7 76.12 1015.1
20 14:53 E 13 16.09 Overcast SCT031 OVC037 9.4 6.1 80% 8 76.12 1014.8
20 13:53 E 13 11.27 Overcast OVC030 8.9 6.1 83% 7 76.1 1014.5
20 12:53 E 11 16.09 Overcast FEW008 OVC037 10.6 6.7 77% 76.07 1014.1
20 11:53 E 11 16.09 Overcast BKN004 BKN026 OVC032 8.3 6.1 86% 7 76.05 1013.9
20 10:53 E 11 16.09 Overcast FEW007 BKN029 OVC040 6.7 5 89% 5 76.05 1013.8
20 09:53 NE 7 16.09 Overcast FEW029 OVC040 7.2 6.1 7.2 5.6 93% 6 76.02 1013.6
20 08:53 NE 7 16.09 Overcast BKN002 OVC036 6.7 6.1 96% 6 76 1013.3
20 07:53 NE 7 1.21 Fog/Mist VV002 6.1 5.6 97% 5 75.97 1013.0
20 06:53 NE 11 4.83 Fog/Mist OVC002 6.1 5.6 97% 4 75.97 1012.8
20 05:53 NE 7 3.22 Fog/Mist OVC002 5.6 5 96% 4 75.95 1012.5
20 04:53 E 6 0.40 Fog VV002 5.6 5.6 100% 75.95 1012.4
20 03:53 NE 6 3.22 Fog/Mist OVC002 6.1 5.6 7.8 5 97% 75.92 1012.4
20 02:53 NE 7 12.87 Overcast BKN002 OVC036 5.6 5 96% 4 75.92 1012.2
20 01:53 NE 7 14.48 Overcast BKN002 OVC036 5.6 5 96% 4 75.92 1012.1
20 00:53 NE 9 16.09 Overcast FEW027 OVC036 6.7 5.6 93% 5 75.9 1011.8
19 23:53 NE 13 16.09 Overcast SCT002 OVC036 6.1 5.6 97% 4 75.9 1011.7
19 22:53 NE 9 16.09 Overcast OVC035 7.2 5.6 90% 6 75.87 1011.4
19 21:53 NE 11 16.09 Overcast SCT008 OVC037 7.8 5.6 10 7.8 86% 6 75.84 1011.3
19 20:53 NE 11 16.09 Overcast SCT007 OVC038 8.9 6.1 83% 7 75.82 1010.9
19 19:53 E 9 11.27 Overcast OVC038 8.9 6.1 83% 8 75.79 1010.6
19 18:53 E 9 9.66 Overcast with Haze BKN010 OVC037 9.4 6.7 83% 8 75.82 1010.7
19 17:53 E 13 12.87 Overcast BKN006 OVC016 8.3 6.1 86% 6 75.82 1010.8
19 16:53 E 15 16.09 NULL NULL 8.9 6.1 83% 7 75.82 1010.8
19 15:53 E 13 12.87 Overcast FEW007 OVC036 9.4 6.1 10.6 6.1 80% 8 75.79 1010.5
19 14:53 E 17 16.09 Overcast OVC035 9.4 6.1 80% 7 75.79 1010.4
19 13:53 E 17 16.09 Overcast BKN005 OVC016 8.3 6.1 86% 6 75.77 1010.3
19 12:53 NE 17 16.09 Overcast BKN004 OVC033 8.9 7.2 89% 7 75.74 1009.9
19 11:53 NE 13 4.83 Fog/Mist OVC002 7.2 6.7 97% 5 75.74 1009.9
19 10:53 NE 13 4.83 Fog/Mist OVC003 6.7 6.7 100% 4 75.74 1009.8
19 09:53 NE 13 1.61 Fog/Mist VV002 6.7 6.1 6.7 4.4 96% 4 75.72 1009.6
19 08:53 N 13 0.80 Fog VV003 5.6 5.6 100% 3 75.72 1009.5
19 07:53 N 15 0.80 Fog VV003 5 5 100% 2 75.69 1009.2
19 06:53 N 13 0.40 Fog VV002 4.4 4.4 100% 2 75.69 1009.1
19 05:53 N 11 2.01 Fog/Mist OVC003 5 4.4 96% 3 75.69 1009.0
19 04:53 N 11 2.41 Fog/Mist OVC005 5 4.4 96% 3 75.69 1009.2
19 03:53 NE 11 0.80 Fog VV002 4.4 4.4 5.6 3.3 100% 2 75.72 1009.3
19 01:53 NE 13 1.61 Fog/Mist VV003 3.9 3.3 96% 1 75.74 1009.7
19 00:53 NE 20 1.61 Fog/Mist VV002 3.9 3.3 96% 0 75.72 1009.7
18 23:53 N 22 0.80 Fog VV002 3.3 2.8 97% -1 75.72 1009.5
18 22:53 NE 17 1.61 Fog/Mist OVC002 4.4 3.3 93% 1 75.72 1009.4
18 21:53 N 20 6.44 Fog/Mist OVC003 5.6 3.9 11.7 5.6 89% 2 75.69 1009.2
18 20:53 NE 19 16.09 Overcast OVC004 6.7 3.9 83% 4 75.69 1009.3
18 19:53 NE 22 9.66 Overcast with Haze OVC006 7.2 3.9 80% 4 75.72 1009.5
18 18:53 NE 20 9.66 Partly Cloudy with Haze SCT008 10 5.6 74% 8 75.72 1009.5
18 17:53 NE 26 12.87 A Few Clouds FEW010 10.6 5.6 71% 75.74 1009.7
18 16:53 NE 26 16.09 Fair CLR 11.7 6.1 69% 75.74 1009.7
18 15:53 NE 20 G 35 16.09 Fair CLR 11.1 5.6 11.7 7.8 69% 75.74 1009.7
18 14:53 NE 26 16.09 Fair CLR 11.7 6.1 69% 75.74 1009.8
18 13:53 NE 24 16.09 Fair CLR 11.7 6.1 69% 75.77 1010.0
18 12:53 NE 22 16.09 Fair CLR 11.1 6.1 72% 75.77 1010.0
18 11:53 NE 24 16.09 Fair CLR 10.6 6.1 74% 75.77 1010.1
18 10:53 NE 24 14.48 Fair CLR 9.4 6.1 80% 7 75.77 1010.2
Date Time (akdt) Wind (kph) Vis. (km) Weather Sky Cond. Air Dwpt Max. Min. Relative Humidity Wind Chill (°C) Heat Index (°C) altimeter (cm) sea level (mb) 1 hr 3 hr 6 hr
6 hour
Temperature (ºC) Pressure Precipitation (cm)